TimeCST,TemperatureF,Dew PointF,Humidity,Sea Level PressureIn,VisibilityMPH,Wind Direction,Wind SpeedMPH,Gust SpeedMPH,PrecipitationIn,Events,Conditions,WindDirDegrees,DateUTC
12:15 AM,30.2,28.4,93,29.85,2.0,ESE,11.5,-,N/A,,Overcast,110,2013-02-22 06:15:00
12:35 AM,30.6,29.1,94,29.84,2.0,ESE,9.2,17.3,N/A,Rain,Freezing Rain,110,2013-02-22 06:35:00
12:55 AM,30.7,29.3,94,29.84,2.5,ESE,9.2,-,N/A,,Freezing Rain,110,2013-02-22 06:55:00
1:15 AM,30.9,29.5,94,29.83,4.0,ESE,10.4,-,N/A,,Overcast,110,2013-02-22 07:15:00
1:35 AM,31.1,29.8,95,29.83,3.0,ESE,9.2,-,N/A,Rain,Freezing Rain,110,2013-02-22 07:35:00
1:55 AM,31.5,30.2,95,29.83,2.5,ESE,8.1,-,N/A,Rain,Freezing Rain,110,2013-02-22 07:55:00
2:15 AM,31.6,30.6,96,29.82,2.0,ESE,8.1,-,N/A,Rain,Freezing Rain,120,2013-02-22 08:15:00
2:35 AM,31.8,30.7,96,29.82,2.5,ESE,5.8,-,N/A,Rain,Freezing Rain,120,2013-02-22 08:35:00
2:55 AM,31.8,30.7,96,29.82,2.5,SE,4.6,-,N/A,Rain,Freezing Rain,130,2013-02-22 08:55:00
3:15 AM,32.0,31.1,96,29.81,3.0,ESE,4.6,-,N/A,Rain,Rain,120,2013-02-22 09:15:00
3:35 AM,32.0,31.1,96,29.80,3.0,ESE,4.6,-,N/A,Rain,Light Rain,120,2013-02-22 09:35:00
3:55 AM,32.0,31.1,96,29.79,3.0,ESE,4.6,-,N/A,Rain,Light Rain,120,2013-02-22 09:55:00
4:15 AM,32.0,31.1,96,29.79,4.0,ESE,4.6,-,N/A,,Overcast,120,2013-02-22 10:15:00
4:35 AM,32.0,31.1,96,29.79,4.0,ESE,4.6,-,N/A,,Overcast,120,2013-02-22 10:35:00
4:55 AM,32.0,31.1,96,29.79,4.0,ESE,3.5,-,N/A,,Overcast,110,2013-02-22 10:55:00
5:15 AM,32.0,31.3,97,29.80,4.0,SE,3.5,-,N/A,,Overcast,130,2013-02-22 11:15:00
5:35 AM,32.0,31.5,98,29.79,4.0,ESE,4.6,-,N/A,,Overcast,120,2013-02-22 11:35:00
5:55 AM,32.0,31.5,98,29.79,4.0,ESE,3.5,-,N/A,,Overcast,120,2013-02-22 11:55:00
6:15 AM,32.0,31.5,98,29.80,3.0,SE,3.5,-,N/A,,Overcast,130,2013-02-22 12:15:00
6:35 AM,32.0,32.0,100,29.80,1.8,Calm,Calm,-,N/A,,Overcast,0,2013-02-22 12:35:00
6:55 AM,32.0,31.8,99,29.80,1.0,SE,3.5,-,N/A,,Overcast,130,2013-02-22 12:55:00
7:15 AM,32.0,32.0,100,29.81,0.8,SSE,3.5,-,N/A,,Overcast,150,2013-02-22 13:15:00
7:35 AM,32.0,32.0,100,29.80,0.5,SSE,3.5,-,N/A,Fog,Fog,150,2013-02-22 13:35:00
7:55 AM,32.5,32.0,98,29.81,0.5,South,5.8,-,N/A,Fog,Fog,180,2013-02-22 13:55:00
8:15 AM,32.9,32.2,97,29.82,0.5,SSW,6.9,-,N/A,Fog,Fog,200,2013-02-22 14:15:00
8:35 AM,32.9,32.4,98,29.82,0.5,SSW,6.9,-,N/A,Fog,Fog,210,2013-02-22 14:35:00
8:55 AM,32.9,32.4,98,29.83,0.8,SSW,8.1,-,N/A,,Overcast,210,2013-02-22 14:55:00
9:15 AM,33.1,32.5,98,29.83,0.8,SSW,8.1,-,N/A,,Overcast,210,2013-02-22 15:15:00
9:35 AM,32.9,32.5,99,29.83,1.0,SSW,11.5,-,N/A,,Overcast,210,2013-02-22 15:35:00
9:55 AM,33.1,32.5,98,29.84,2.0,SW,13.8,17.3,N/A,,Overcast,220,2013-02-22 15:55:00
10:15 AM,33.1,32.7,99,29.84,2.0,SW,17.3,23.0,0.01,,Overcast,220,2013-02-22 16:15:00
10:35 AM,33.3,32.7,98,29.85,2.0,SW,16.1,20.7,0.03,,Overcast,220,2013-02-22 16:35:00
10:55 AM,33.1,32.5,98,29.86,2.5,SW,15.0,-,0.04,,Overcast,220,2013-02-22 16:55:00
11:15 AM,33.4,32.9,98,29.86,4.0,SW,16.1,21.9,0.02,,Overcast,230,2013-02-22 17:15:00
11:35 AM,33.8,32.7,96,29.86,7.0,SW,12.7,17.3,0.03,,Overcast,220,2013-02-22 17:35:00
11:55 AM,33.8,32.4,94,29.86,7.0,SW,12.7,18.4,0.04,,Overcast,220,2013-02-22 17:55:00
12:15 PM,34.2,32.4,93,29.86,7.0,SW,15.0,-,N/A,,Overcast,220,2013-02-22 18:15:00
12:35 PM,34.3,32.2,92,29.86,10.0,SW,15.0,23.0,N/A,,Overcast,220,2013-02-22 18:35:00
12:55 PM,34.5,32.0,90,29.86,10.0,SW,16.1,-,N/A,,Overcast,220,2013-02-22 18:55:00
1:15 PM,34.7,32.0,90,29.86,10.0,SW,15.0,-,N/A,,Overcast,220,2013-02-22 19:15:00
1:35 PM,34.9,32.0,89,29.86,10.0,SW,12.7,-,N/A,,Overcast,220,2013-02-22 19:35:00
1:55 PM,34.7,32.0,90,29.87,10.0,SW,12.7,-,N/A,,Overcast,220,2013-02-22 19:55:00
2:15 PM,34.3,32.0,91,29.87,7.0,SW,11.5,-,N/A,Rain,Light Rain,230,2013-02-22 20:15:00
2:35 PM,34.3,32.0,91,29.87,10.0,SW,12.7,-,N/A,,Overcast,230,2013-02-22 20:35:00
2:55 PM,34.7,31.6,89,29.87,10.0,SW,11.5,-,N/A,,Overcast,230,2013-02-22 20:55:00
3:15 PM,34.2,31.6,90,29.88,10.0,SW,15.0,-,N/A,,Overcast,230,2013-02-22 21:15:00
3:35 PM,34.0,31.1,89,29.89,10.0,WSW,13.8,-,N/A,,Overcast,240,2013-02-22 21:35:00
3:55 PM,33.8,30.9,89,29.89,7.0,SW,16.1,-,N/A,,Overcast,230,2013-02-22 21:55:00
4:15 PM,33.4,30.9,90,29.89,7.0,WSW,13.8,-,N/A,,Overcast,240,2013-02-22 22:15:00
4:35 PM,33.3,31.1,92,29.90,5.0,WSW,11.5,-,N/A,Snow,Light Snow,240,2013-02-22 22:35:00
4:55 PM,32.9,31.1,93,29.90,7.0,WSW,10.4,-,N/A,,Overcast,240,2013-02-22 22:55:00
5:15 PM,32.5,30.9,94,29.90,5.0,West,11.5,-,N/A,Rain,Light Rain,260,2013-02-22 23:15:00
5:35 PM,32.7,30.2,90,29.92,10.0,West,9.2,-,N/A,,Overcast,270,2013-02-22 23:35:00
5:55 PM,32.4,29.3,88,29.92,10.0,West,11.5,-,N/A,,Overcast,260,2013-02-22 23:55:00
6:15 PM,32.4,29.1,88,29.93,10.0,West,10.4,-,N/A,,Overcast,260,2013-02-23 00:15:00
6:35 PM,32.2,29.1,88,29.93,10.0,West,8.1,-,N/A,,Overcast,270,2013-02-23 00:35:00
6:55 PM,32.0,27.7,84,29.93,10.0,West,16.1,20.7,N/A,,Overcast,270,2013-02-23 00:55:00
7:15 PM,31.8,26.8,82,29.93,10.0,West,19.6,24.2,N/A,,Overcast,260,2013-02-23 01:15:00
7:35 PM,31.1,25.5,80,29.95,10.0,West,17.3,-,N/A,,Overcast,260,2013-02-23 01:35:00
7:55 PM,30.7,25.3,80,29.95,10.0,West,17.3,-,N/A,,Overcast,260,2013-02-23 01:55:00
8:15 PM,30.2,25.0,81,29.96,10.0,West,13.8,19.6,N/A,,Overcast,260,2013-02-23 02:15:00
8:35 PM,30.2,24.8,80,29.96,10.0,West,11.5,19.6,N/A,,Overcast,260,2013-02-23 02:35:00
8:55 PM,29.8,25.0,82,29.96,10.0,West,15.0,-,N/A,,Overcast,260,2013-02-23 02:55:00
9:15 PM,29.3,24.4,82,29.97,10.0,West,16.1,20.7,N/A,,Overcast,270,2013-02-23 03:15:00
9:35 PM,29.1,23.5,80,29.97,10.0,West,16.1,-,N/A,,Overcast,260,2013-02-23 03:35:00
9:55 PM,28.9,23.4,80,29.97,10.0,WSW,9.2,-,N/A,,Overcast,240,2013-02-23 03:55:00
10:15 PM,28.9,23.2,79,29.97,10.0,WSW,10.4,-,N/A,,Overcast,250,2013-02-23 04:15:00
10:35 PM,28.4,24.8,86,29.97,10.0,SW,9.2,-,N/A,,Overcast,230,2013-02-23 04:35:00
10:55 PM,28.4,23.4,81,29.97,10.0,SW,12.7,-,N/A,,Overcast,230,2013-02-23 04:55:00
11:15 PM,28.4,23.5,82,29.97,10.0,WSW,12.7,-,N/A,,Overcast,240,2013-02-23 05:15:00
11:35 PM,28.2,23.4,82,29.97,10.0,WSW,11.5,-,N/A,,Overcast,240,2013-02-23 05:35:00
11:55 PM,27.9,23.0,82,29.97,10.0,WSW,11.5,-,N/A,,Overcast,240,2013-02-23 05:55:00